Flag for Chile Weather past 2 weeks in Osorno, Chile

Now
37 °F

Clear.


Feels Like: 37 °F
Forecast: 34 / 72 °F
Wind: 1 mph from West

Location: Puerto Montt Airport

Current Time: Oct 1, 2014 at 3:02:13 AM

Latest Report: Oct 1, 2014 at 2:00 AM


Visibility: 10 mi

Pressure: 30.15 "Hg

Humidity: 93%

Dew point: 36 °F

Location of OsornoLocation

Historic Weather in Osorno — Graph

°F

Osorno temperature yesterday

Maximum temperature yesterday: 55 °F (at 2:00 PM)
Minimum temperature yesterday: 45 °F (at 10:00 PM)
Average temperature yesterday: 50 °F

Past Weeks' High & Low Weather Summary

 TemperatureHumidityPressure
High57 °F (Sep 17, 4:00 PM)100% (Sep 16, 6:00 AM)30.33 "Hg (Sep 16, 6:00 AM)
Low34 °F (Sep 25, 2:00 AM)58% (Sep 23, 1:00 PM)29.71 "Hg (Sep 23, 6:00 AM)
Average47 °F88%30.01 "Hg
* Reported Sep 16 2:00 AM — Oct 1 2:00 AM, Osorno, Weather by CustomWeather, © 2014

Note: Actual official high and low records may vary slightly from our data, if they occured in-between our weather recording intervals... More about our weather records

Advertising

Osorno weather history for previous 24 hours

 ConditionsComfort  
Time TempWeatherWind HumidityBarometerVisibility
2:00 AM
Oct 1
37 °FClear.1 mph93%30.15 "Hg10 mi
1:00 AM45 °FClear.No wind93%30.15 "Hg10 mi
12:00 AM43 °FClear.1 mph87%30.15 "Hg10 mi
11:00 PM
Sep 30
45 °FClear.5 mph87%30.18 "Hg10 mi
10:00 PM45 °FClear.5 mph93%30.18 "Hg10 mi
9:00 PM46 °FPassing clouds.5 mph87%30.18 "HgN/A
8:00 PM50 °FPassing clouds.6 mph82%30.18 "HgN/A
7:00 PM54 °FPassing clouds.6 mph72%30.18 "HgN/A
6:00 PM55 °FPartly sunny.7 mph72%30.15 "HgN/A
5:00 PM55 °FPartly sunny.7 mph72%30.15 "HgN/A
4:00 PM55 °FBroken clouds.2 mph72%30.15 "HgN/A
3:00 PM55 °FBroken clouds.5 mph63%30.15 "HgN/A
2:00 PM55 °FBroken clouds.3 mph67%30.15 "HgN/A
1:00 PM54 °FPartly sunny.3 mph77%29.89 "HgN/A
12:00 PM52 °FPartly sunny.5 mph77%30.18 "HgN/A
11:00 AM50 °FPartly sunny.3 mph88%30.15 "HgN/A
10:00 AM50 °FBroken clouds.5 mph94%30.15 "HgN/A
9:00 AM46 °FPartly sunny.3 mph100%30.15 "HgN/A
8:00 AM46 °FLight rain. Overcast.6 mph93%30.12 "Hg2 mi
7:00 AM46 °FLight rain. Overcast.5 mph93%30.09 "Hg2 mi
6:00 AM46 °FOvercast.2 mph93%30.09 "HgN/A
5:00 AM46 °FPassing clouds.2 mph93%30.09 "HgN/A
4:00 AM46 °FLight rain. Overcast.2 mph93%30.07 "Hg3 mi
3:00 AM46 °FLight rain. Overcast.2 mph93%30.07 "Hg4 mi
Weather by CustomWeather, © 2014

See weather overviewHow to use our weather pages